Tracking 21612 objects as of 19-Oct-2020
HD Live streaming from Space Station
objects crossing your sky now

COSMOS 1275 DEB

Track COSMOS 1275 DEB now!
10-day predictions


NORAD ID: 39936
Int'l Code: 1981-053NC
Perigee: 907.3 km
Apogee: 999.4 km
Inclination: 83.1 °
Period: 104.0 minutes
Semi major axis: 7324 km
RCS: 0.0039 m2 (small)
Launch date: April 25, 1981
Source: Commonwealth of Independent States (former USSR) (CIS)
Launch site: PLESETSK MISSILE AND SPACE COMPLEX (PKMTR)

Note: This is SATELLITE DEBRIS
aabbcc
Your satellite tracking list
Your tracking list is empty




NASA's NSSDC Master Catalog

Two Line Element Set (TLE):
1 39936U 81053MW  20291.24990492 +.00000393 +00000-0 +32910-3 0  9993
2 39936 083.1463 278.9974 0062840 346.7165 013.2339 13.84994995311787
Source of the keplerian elements: AFSPC